Weather reports worldwide

Advertisment
Perpignan, France (7747): temperature & dewpoint: 09.12.2018 07:00:00 - 15.12.2018 07:00:00 (CET)Perpignan, France (7747): temperature 5cm: 09.12.2018 07:00:00 - 15.12.2018 07:00:00 (CET)Perpignan, France (7747): temperature -20cm & temperature -100cm: 09.12.2018 07:00:00 - 15.12.2018 07:00:00 (CET)Perpignan, France (7747): wind speed & gusts: 09.12.2018 07:00:00 - 15.12.2018 07:00:00 (CET)Perpignan, France (7747): wind direction: 09.12.2018 07:00:00 - 15.12.2018 07:00:00 (CET)Perpignan, France (7747): reduced air pressure: 09.12.2018 07:00:00 - 15.12.2018 07:00:00 (CET)Perpignan, France (7747): visibility: 09.12.2018 07:00:00 - 15.12.2018 07:00:00 (CET)Perpignan, France (7747): precipitation: 09.12.2018 07:00:00 - 15.12.2018 07:00:00 (CET)
Date & Time tt [°C] td [°C] tt 5cm [°C] tt -20cm [°C] tt -100cm [°C] ff [km/h] ff [kn] fx [km/h] fx [kn] dd ppp [hPa] vv [km] rr [mm]
15.12.2018 07:00:00 - - - - - - - - - - - - -
15.12.2018 06:00:00 10,3 5,1 4,9 10,9 14,0 10 6 24 13 WNW 1020,4 60 0,0
15.12.2018 05:00:00 10,5 4,6 6,5 10,9 14,0 9 5 24 13 WNW 1020,4 60 0,0
15.12.2018 04:00:00 10,9 4,8 8,2 11,0 14,0 13 7 35 19 NNW 1020,1 60 0,0
15.12.2018 03:00:00 11,0 4,7 8,9 11,0 14,0 12 7 44 24 NW 1020,5 60 0,0
15.12.2018 02:00:00 11,3 5,2 9,6 11,0 14,0 20 11 41 22 WNW 1020,2 60 0,0
15.12.2018 01:00:00 11,2 5,1 9,8 11,1 14,0 20 11 51 27 NW 1019,8 60 0,0
15.12.2018 00:00:00 11,5 5,6 9,8 11,1 14,0 24 13 53 29 NW 1019,4 60 0,0
14.12.2018 23:00:00 11,4 5,7 9,8 11,1 14,0 24 13 58 31 NW 1019,0 60 0,0
14.12.2018 22:00:00 11,7 5,6 10,3 11,2 14,0 31 17 54 29 NW 1019,0 60 0,0
14.12.2018 21:00:00 11,6 6,1 10,2 11,2 14,1 32 17 52 28 NW 1018,9 59 0,0
14.12.2018 20:00:00 11,4 5,9 9,9 11,2 14,1 29 16 53 28 NW 1018,2 60 0,0
14.12.2018 19:00:00 11,2 6,1 9,9 11,3 14,1 34 18 77 42 NW 1017,9 60 0,0
14.12.2018 18:00:00 11,2 6,1 10,3 11,2 14,1 43 23 79 43 NW 1016,9 60 0,0
14.12.2018 17:00:00 11,7 6,0 10,7 11,1 14,1 35 19 69 38 NW 1016,3 60 0,0
14.12.2018 16:00:00 12,6 6,2 13,6 11,0 14,1 23 12 51 28 NNW 1016,5 60 0,0
14.12.2018 15:00:00 13,1 6,7 12,1 10,9 14,1 25 13 51 27 NNW 1015,6 57 0,0
14.12.2018 14:00:00 12,0 6,7 11,9 10,8 14,1 19 11 41 22 NW 1015,5 60 0,0
14.12.2018 13:00:00 11,6 6,3 12,0 10,7 14,1 9 5 29 15 NW 1015,7 60 0,0
14.12.2018 12:00:00 11,3 5,4 11,3 10,7 14,2 9 5 29 16 NW 1016,1 60 0,0
14.12.2018 11:00:00 10,9 5,8 10,0 10,7 14,2 10 6 33 18 NNW 1016,1 52 0,0
14.12.2018 10:00:00 9,5 6,0 7,9 10,7 14,2 11 6 18 10 N 1015,4 60 0,0
14.12.2018 09:00:00 8,0 6,9 5,2 10,7 14,2 13 7 26 14 N 1014,4 60 0,0
14.12.2018 08:00:00 7,0 6,4 5,5 10,7 14,2 0 0 6 4 N 1013,6 60 0,0
14.12.2018 07:00:00 7,1 6,5 6,7 10,7 14,2 4 2 7 4 NW 1013,4 60 0,2
14.12.2018 06:00:00 7,1 6,7 6,6 10,7 14,2 3 1 4 2 NW 1013,0 16 0,4
14.12.2018 05:00:00 7,0 6,4 6,4 10,7 14,2 2 1 3 2 WNW 1012,8 32 0,4
14.12.2018 04:00:00 7,1 6,4 6,6 10,8 14,2 0 0 6 3 N 1012,7 13 0,8
14.12.2018 03:00:00 7,1 6,4 6,7 10,8 14,2 4 2 11 6 N 1012,5 14 0,6
14.12.2018 02:00:00 7,1 6,5 6,8 10,8 14,2 6 3 11 6 NNE 1012,0 18 0,4
14.12.2018 01:00:00 7,3 6,6 6,8 10,9 14,2 7 4 22 12 N 1011,5 13 1,6
14.12.2018 00:00:00 7,6 6,2 6,8 10,9 14,2 14 7 22 12 N 1011,1 8 2,4
13.12.2018 23:00:00 7,7 6,0 6,8 11,0 14,3 12 6 26 14 NNW 1010,4 8 3,2
13.12.2018 22:00:00 7,7 6,2 6,9 11,1 14,2 18 10 38 20 NNW 1009,5 6 2,8
13.12.2018 21:00:00 7,7 6,3 6,9 11,1 14,3 20 11 40 22 NNW 1008,5 12 3,3
13.12.2018 20:00:00 7,8 6,3 7,0 11,2 14,3 22 12 32 18 NW 1007,7 9 2,0
13.12.2018 19:00:00 7,6 6,4 6,9 11,3 14,3 18 10 27 15 NNW 1006,6 8 3,0
13.12.2018 18:00:00 7,2 6,3 6,7 11,3 14,3 12 7 20 11 NW 1006,2 7 1,4
13.12.2018 17:00:00 7,0 6,1 6,5 11,3 14,3 10 6 18 10 NW 1005,9 7 1,6
13.12.2018 16:00:00 6,7 5,8 6,4 11,4 14,3 13 7 20 11 NW 1005,5 5 2,2
13.12.2018 15:00:00 6,7 5,3 6,5 11,4 14,3 11 6 18 10 NW 1005,5 9 0,4
13.12.2018 14:00:00 7,9 6,4 7,8 11,3 14,3 8 5 11 6 W 1006,0 7 0,0
13.12.2018 13:00:00 7,9 6,0 7,7 11,3 14,4 7 4 14 8 NW 1006,6 16 0,0
13.12.2018 12:00:00 8,0 5,6 7,5 11,3 14,3 4 2 18 10 W 1007,9 19 0,0
13.12.2018 11:00:00 7,9 4,8 8,1 11,3 14,4 14 7 27 15 NNE 1008,3 18 0,0
13.12.2018 10:00:00 8,0 5,1 8,0 11,3 14,3 19 10 31 17 NNE 1008,8 24 0,0
13.12.2018 09:00:00 7,8 5,4 7,9 11,3 14,4 18 10 31 17 NNE 1009,1 19 0,0
13.12.2018 08:00:00 8,6 6,2 8,5 11,3 14,4 13 7 19 11 NNE 1009,2 24 0,0
13.12.2018 07:00:00 9,0 6,3 8,8 11,3 14,3 10 5 14 8 NNE 1009,3 46 0,0
13.12.2018 06:00:00 8,9 6,2 8,2 11,4 14,3 7 4 14 7 N 1010,2 60 0,0
13.12.2018 05:00:00 8,3 5,8 8,1 11,3 14,4 10 5 13 7 N 1011,1 59 0,0
13.12.2018 04:00:00 8,3 5,8 7,7 11,4 14,4 5 3 10 6 NW 1011,9 60 0,0
13.12.2018 03:00:00 7,7 5,5 7,5 11,4 14,4 5 3 9 5 N 1012,7 55 0,0
13.12.2018 02:00:00 8,0 5,6 6,8 11,4 14,4 5 3 7 4 N 1013,4 49 0,0
13.12.2018 01:00:00 8,6 6,0 6,6 11,4 14,4 0 0 5 3 N 1014,0 55 0,0
13.12.2018 00:00:00 9,3 5,8 7,9 11,4 14,4 2 1 8 5 ESE 1015,1 58 0,0
12.12.2018 23:00:00 9,7 6,0 8,8 11,4 14,4 5 3 14 7 W 1015,6 60 0,0
12.12.2018 22:00:00 10,7 5,7 8,5 11,4 14,4 9 5 14 8 NNW 1016,0 60 0,0
12.12.2018 21:00:00 10,5 5,7 9,2 11,4 14,5 5 3 19 11 NW 1016,5 60 0,0
12.12.2018 20:00:00 11,2 5,5 10,0 11,3 14,4 14 7 22 12 W 1016,8 60 0,0
12.12.2018 19:00:00 11,8 5,4 10,8 11,3 14,4 13 7 21 12 WNW 1017,5 60 0,0
12.12.2018 18:00:00 12,1 5,0 10,0 11,2 14,4 11 6 19 10 NW 1017,4 60 0,0
12.12.2018 17:00:00 12,3 5,2 10,8 11,1 14,5 7 4 26 14 NNW 1017,3 60 0,0
12.12.2018 16:00:00 13,3 5,4 12,9 11,0 14,5 12 6 27 14 NW 1017,5 60 0,0
12.12.2018 15:00:00 13,5 5,4 12,6 10,9 14,4 10 5 24 13 NW 1017,8 60 0,0
12.12.2018 14:00:00 12,5 7,4 12,5 10,7 14,5 3 2 9 5 SE 1018,4 55 0,0
12.12.2018 13:00:00 13,0 6,6 14,5 10,6 14,5 3 2 14 8 ENE 1019,0 40 0,0
12.12.2018 12:00:00 12,9 5,3 13,4 10,5 14,5 6 4 13 7 SSE 1018,9 50 0,0
12.12.2018 11:00:00 10,9 4,4 11,8 10,5 14,6 8 4 11 6 S 1019,9 19 0,0
12.12.2018 10:00:00 9,1 3,9 5,5 10,5 14,5 5 3 14 8 SW 1019,9 44 0,0
12.12.2018 09:00:00 6,4 3,7 2,3 10,6 14,5 11 6 18 10 WSW 1019,9 47 0,0
12.12.2018 08:00:00 4,8 3,0 1,7 10,7 14,5 10 5 13 7 WSW 1019,9 52 0,0
12.12.2018 07:00:00 4,6 2,5 2,4 10,7 14,5 9 5 13 7 SW 1019,8 55 0,0
12.12.2018 06:00:00 4,6 2,6 2,3 10,8 14,5 5 3 10 6 SSW 1019,8 55 0,0
12.12.2018 05:00:00 4,5 2,8 2,5 10,9 14,6 5 3 9 5 SW 1020,3 59 0,0
12.12.2018 04:00:00 4,1 2,4 1,5 10,9 14,6 2 1 7 4 W 1020,6 59 0,0
12.12.2018 03:00:00 4,0 2,3 0,5 11,1 14,5 5 3 8 5 WSW 1021,0 51 0,0
12.12.2018 02:00:00 4,5 2,0 1,6 11,2 14,6 4 2 12 7 NW 1021,0 49 0,0
12.12.2018 01:00:00 4,9 2,8 1,3 11,3 14,5 8 4 13 7 W 1020,9 55 0,0
12.12.2018 00:00:00 4,8 2,8 0,9 11,4 14,6 9 5 12 7 W 1020,9 49 0,0
11.12.2018 23:00:00 5,0 2,9 1,3 11,6 14,6 7 4 11 6 W 1021,0 51 0,0
11.12.2018 22:00:00 5,3 3,1 1,2 11,6 14,6 6 4 13 7 WSW 1020,9 49 0,0
11.12.2018 21:00:00 5,6 3,3 2,4 11,7 14,5 8 4 12 7 W 1020,9 52 0,0
11.12.2018 20:00:00 7,1 3,5 3,7 11,8 14,6 7 4 12 6 NW 1020,8 55 0,0
11.12.2018 19:00:00 8,5 3,9 3,7 11,9 14,7 7 4 9 5 NNW 1020,4 32 0,0
11.12.2018 18:00:00 8,8 3,8 5,4 11,9 14,6 6 3 9 5 N 1020,2 44 0,0
11.12.2018 17:00:00 10,5 3,7 7,6 11,8 14,6 6 4 15 8 ENE 1019,7 51 0,0
11.12.2018 16:00:00 12,7 3,9 13,1 11,6 14,6 11 6 17 9 E 1019,7 44 0,0
11.12.2018 15:00:00 14,8 2,3 15,3 11,5 14,6 4 2 11 6 ESE 1020,0 57 0,0
11.12.2018 14:00:00 14,3 2,8 17,4 11,4 14,6 7 4 13 7 S 1020,9 49 0,0
11.12.2018 13:00:00 13,7 3,2 18,0 11,3 14,6 8 5 16 9 SW 1021,9 35 0,0
11.12.2018 12:00:00 12,2 3,7 17,0 11,2 14,6 9 5 21 11 SW 1022,9 20 0,0
11.12.2018 11:00:00 11,0 3,8 14,7 11,3 14,6 9 5 14 8 SW 1023,6 42 0,0
11.12.2018 10:00:00 8,8 3,4 8,0 11,4 14,6 5 3 13 7 SW 1023,9 45 0,0
11.12.2018 09:00:00 6,5 2,9 2,4 11,5 14,6 9 5 14 7 W 1024,0 46 0,0
11.12.2018 08:00:00 6,4 2,3 0,5 11,6 14,6 8 4 10 6 S 1023,8 51 0,0
11.12.2018 07:00:00 7,8 1,6 4,3 11,7 14,6 4 2 19 10 NE 1024,0 54 0,0
11.12.2018 06:00:00 8,4 2,4 4,1 11,8 14,6 4 2 22 12 NE 1024,3 60 0,0
11.12.2018 05:00:00 7,9 2,8 4,1 11,9 14,6 6 3 15 8 WSW 1024,8 59 0,0
11.12.2018 04:00:00 9,0 3,0 6,2 12,0 14,7 16 9 48 26 WNW 1025,3 59 0,0
11.12.2018 03:00:00 9,0 3,2 6,2 12,0 14,6 11 6 27 15 NW 1025,8 55 0,0
11.12.2018 02:00:00 9,3 3,7 5,7 12,2 14,6 18 10 24 13 W 1025,6 55 0,0
11.12.2018 01:00:00 10,7 3,0 8,1 12,3 14,7 14 8 29 16 NW 1026,3 58 0,0
11.12.2018 00:00:00 10,6 3,6 6,3 12,3 14,6 14 8 31 17 W 1027,1 58 0,0
10.12.2018 23:00:00 10,0 3,5 4,7 12,5 14,6 12 7 26 14 WNW 1027,2 56 0,0
10.12.2018 22:00:00 9,9 2,5 4,5 12,6 14,7 2 1 26 14 SW 1027,7 57 0,0
10.12.2018 21:00:00 10,9 3,4 6,3 12,7 14,6 8 4 19 11 N 1028,0 59 0,0
10.12.2018 20:00:00 10,8 3,6 8,7 12,7 14,7 9 5 34 18 N 1028,1 54 0,0
10.12.2018 19:00:00 11,3 4,0 9,6 12,8 14,7 14 8 40 22 NNW 1027,4 53 0,0
10.12.2018 18:00:00 11,6 4,8 10,3 12,9 14,7 23 12 57 31 NW 1027,2 48 0,0
10.12.2018 17:00:00 12,4 5,1 11,4 12,8 14,6 32 17 67 36 NW 1027,0 48 0,0
10.12.2018 16:00:00 13,1 5,0 12,5 12,8 14,6 36 19 64 35 NNW 1026,9 35 0,0
10.12.2018 15:00:00 13,6 4,2 13,6 12,7 14,7 35 19 65 35 NNW 1027,8 34 0,0
10.12.2018 14:00:00 13,7 4,6 14,5 12,7 14,6 41 22 69 38 NW 1028,2 27 0,0
10.12.2018 13:00:00 13,2 6,1 14,6 12,6 14,6 35 19 74 40 NNW 1028,9 25 0,0
10.12.2018 12:00:00 13,7 5,6 15,9 12,6 14,6 36 19 64 35 NW 1029,8 30 0,0
10.12.2018 11:00:00 13,4 5,0 15,0 12,6 14,7 37 20 64 35 NNW 1030,6 20 0,0
10.12.2018 10:00:00 13,2 4,3 12,0 12,6 14,7 32 17 56 30 NW 1030,5 20 0,0
10.12.2018 09:00:00 12,5 4,5 11,9 12,6 14,7 34 19 57 31 NW 1030,1 50 0,0
10.12.2018 08:00:00 12,6 4,3 11,9 12,6 14,7 23 12 50 27 NNW 1029,8 54 0,0
10.12.2018 07:00:00 12,9 4,8 12,3 12,6 14,7 24 13 54 29 NNW 1029,3 50 0,0
10.12.2018 06:00:00 12,9 4,8 11,0 12,6 14,6 20 11 42 23 NW 1029,1 50 0,0
10.12.2018 05:00:00 12,7 3,9 11,8 12,7 14,7 16 9 43 23 NW 1029,5 54 0,0
10.12.2018 04:00:00 13,2 4,3 12,3 12,7 14,7 26 14 58 31 NW 1029,1 54 0,0
10.12.2018 03:00:00 13,3 5,0 11,8 12,7 14,7 19 10 34 19 NNW 1029,1 46 0,0
10.12.2018 02:00:00 13,0 4,7 12,2 12,7 14,7 11 6 38 20 NW 1029,0 54 0,0
10.12.2018 01:00:00 13,5 3,8 12,2 12,8 14,6 16 8 44 24 NW 1029,1 52 0,0
10.12.2018 00:00:00 13,7 2,9 11,8 12,9 14,7 23 13 48 26 NW 1028,6 60 0,0
09.12.2018 23:00:00 13,5 2,7 11,4 12,9 14,6 16 9 76 41 NW 1028,0 60 0,0
09.12.2018 22:00:00 13,6 3,9 12,5 12,9 14,6 44 24 77 41 NW 1026,6 48 0,0
09.12.2018 21:00:00 14,0 4,6 13,4 12,9 14,7 39 21 96 52 NW 1026,4 46 0,0
09.12.2018 20:00:00 14,7 6,0 13,9 13,0 14,7 54 29 96 52 NW 1025,4 57 0,0
09.12.2018 19:00:00 15,6 5,2 14,3 13,0 14,7 53 29 86 47 WNW 1023,6 60 0,0
09.12.2018 18:00:00 15,6 4,3 14,6 13,0 14,7 42 23 84 45 NW 1023,5 60 0,0
09.12.2018 17:00:00 15,7 5,9 14,8 12,9 14,7 50 27 90 49 WNW 1022,7 54 0,0
09.12.2018 16:00:00 16,6 5,8 16,7 12,8 14,7 42 23 92 50 NW 1022,1 23 0,0
09.12.2018 15:00:00 17,2 5,2 17,3 12,7 14,7 50 27 88 47 WNW 1021,7 24 0,0
09.12.2018 14:00:00 17,7 6,2 19,3 12,6 14,7 47 26 93 50 WNW 1022,0 38 0,0
09.12.2018 13:00:00 17,7 6,2 17,8 12,4 14,7 46 25 81 44 NW 1022,2 55 0,0
09.12.2018 12:00:00 17,3 6,5 16,8 12,4 14,7 37 20 70 38 NW 1022,8 60 0,0
09.12.2018 11:00:00 16,4 7,3 16,0 12,3 14,7 39 21 78 42 WNW 1023,8 55 0,0
09.12.2018 10:00:00 16,1 7,6 16,1 12,2 14,7 39 21 74 40 NW 1023,3 26 0,0
09.12.2018 09:00:00 16,3 7,2 15,1 12,2 14,7 40 22 75 40 NW 1023,1 41 0,0
09.12.2018 08:00:00 16,2 7,4 14,9 12,2 14,6 44 24 74 40 WNW 1023,0 60 0,0
09.12.2018 07:00:00 16,3 7,5 14,6 12,2 14,7 35 19 64 35 WNW 1023,2 60 0,0

tt = temperature
td = dewpoint
tt 5cm = temperature 5cm
tt -20cm = temperature -20cm
tt -100cm = temperature -100cm
ff = wind speed
fx = gusts
dd = wind direction
ppp = reduced air pressure
vv = visibility
rr = precipitation

Next stations